Temperature
16 16 16 16 16 16 16 16 15 15 15 15 15 15 15 15 15 15 15 15 15 15 15 15 15 15 15 16 16 16 16 16 16 16 16 16 16 16 16 16 16 16 16
16 16 16 16 16 16 16 16 15 15 15 15 15 15 15 15 15 15 15 15 15 15 15 15 15 15 15 15 15 16 16 16 16 16 16 16 16 16 16 16 16 16 16
15 15 16 16 15 15 15 15 15 15 15 15 15 15 15 15 15 15 15 15 15 15 15 15 15 15 15 15 15 15 15 15 15 15 16 16 16 16 16 16 16 16 16
16 16 15 15 15 15 15 15 15 15 15 15 15 15 14 14 14 14 14 14 14 15 15 15 15 15 15 15 15 15 15 15 15 15 15 15 15 15 15 16 16 16 16
15 15 15 15 15 15 15 15 15 15 15 15 15 14 14 14 14 14 14 14 14 14 14 14 15 15 14 14 14 14 15 15 15 15 15 15 15 15 15 15 15 15 15
15 15 15 15 15 15 15 15 15 15 15 15 15 14 14 14 14 14 14 14 14 14 14 14 14 14 14 14 14 14 14 14 15 15 15 15 15 15 15 15 15 15 15
15 15 15 15 15 15 15 15 15 15 15 15 15 14 14 14 14 14 14 14 14 14 14 14 14 14 14 14 14 14 14 14 14 14 14 14 14 14 15 15 15 15 15
15 15 15 15 15 15 15 15 15 15 15 14 14 14 14 13 13 13 13 13 13 13 13 13 13 13 13 14 14 14 14 14 14 14 14 14 14 14 14 14 14 14 14
15 15 15 15 15 15 15 15 15 15 15 15 14 14 14 13 13 13 13 13 13 13 13 13 13 13 13 13 13 13 13 14 13 13 14 14 14 14 14 14 14 14 14
15 15 15 15 15 15 15 15 15 15 15 15 14 14 14 14 14 13 13 13 13 13 13 13 13 13 13 13 13 13 13 13 13 13 13 13 13 13 13 13 13 13 13
15 15 15 15 15 15 15 15 15 15 15 15 14 14 14 14 14 13 13 12 13 12 12 12 12 12 12 12 13 12 13 13 13 13 13 13 13 13 13 13 13 13 13
15 15 15 15 15 15 15 15 15 15 14 14 14 14 14 14 14 14 13 13 12 12 12 12 12 12 12 12 12 12 12 12 12 12 12 12 12 12 12 12 12 12 12
15 15 15 15 15 15 15 14 14 14 14 14 14 14 14 14 14 14 14 13 12 12 12 12 12 12 12 12 12 12 12 12 12 12 12 12 12 12 12 12 12 12 12
15 15 15 14 14 14 14 14 14 14 14 14 14 14 14 14 14 14 14 13 13 12 12 12 12 11 11 11 11 11 11 11 11 11 11 11 11 11 11 11 11 11 11
15 15 14 14 14 14 14 14 14 14 14 14 14 14 14 13 13 13 13 13 13 12 12 11 11 11 11 11 11 11 11 11 11 11 11 11 11 11 11 11 11 11 11
15 15 14 14 14 14 14 14 14 14 14 13 13 13 13 13 13 13 13 13 13 13 12 11 11 11 11 11 11 11 11 11 11 11 11 11 11 10 10 10 10 10 10
15 14 14 14 14 14 14 14 14 13 13 13 13 13 13 13 13 13 13 12 12 12 12 11 11 11 11 11 11 11 10 10 10 10 10 10 10 10 10 10 9 9 9
15 14 14 14 14 14 14 13 13 13 13 13 13 13 13 13 12 12 12 12 12 12 12 11 11 11 11 10 10 10 10 10 10 10 10 10 9 9 9 9 9 9 9
14 14 14 14 14 14 13 13 13 13 13 13 13 13 12 12 12 12 12 12 12 11 11 11 11 10 10 10 10 10 10 10 10 9 9 9 9 9 9 9 9 8 8
14 14 14 14 14 13 13 13 13 13 13 13 12 12 12 12 12 12 12 11 11 11 11 11 10 10 10 10 10 10 10 9 9 9 9 9 8 8 8 8 8 8 8
14 14 14 14 13 13 13 13 13 13 13 12 12 12 12 12 12 11 11 11 11 11 11 10 10 10 10 10 9 9 9 9 9 9 8 8 8 8 8 8 8 7 7
14 14 14 14 13 13 13 13 13 12 12 12 12 12 12 11 11 11 11 11 10 10 10 10 10 10 9 9 9 9 8 8 8 8 8 8 8 8 8 7 7 7 6
14 14 14 13 13 13 13 12 12 12 12 12 12 12 12 11 11 11 11 10 10 10 10 10 9 9 9 9 8 8 8 8 8 7 7 7 7 7 7 7 7 6 6
14 14 13 13 13 13 12 12 12 12 12 12 11 11 11 11 11 11 10 10 10 10 10 9 9 9 8 8 8 8 7 7 7 7 7 7 7 7 7 6 6 6 5
14 13 13 13 13 13 12 12 12 12 11 11 11 11 11 11 11 10 10 10 10 10 9 9 9 9 8 8 8 7 7 7 7 7 6 6 6 6 6 6 6 5 5
13 13 13 13 13 12 12 12 12 11 11 11 11 11 11 10 10 10 10 10 9 9 9 9 8 8 8 8 7 7 7 6 6 6 6 5 5 5 4 5 5 4 4
Wind_Speed
3 4 5 6 7 7 6 6 6 7 7 8 9 10 9 9 10 11 11 13 13 12 12 12 12 11 11 10 9 9 8 7 6 5 5 5 4 5 4 4 4 4 5
4 4 4 5 6 6 6 6 6 6 6 7 8 9 9 9 11 11 12 13 15 15 15 14 13 13 13 12 11 11 10 9 8 7 6 5 5 5 5 5 5 5 5
5 5 3 4 4 6 7 7 7 7 6 6 7 7 8 9 10 11 11 12 13 15 15 15 14 13 14 14 13 12 12 11 10 9 8 6 5 6 6 5 5 5 6
7 6 4 3 5 6 6 5 4 5 6 6 6 6 7 8 9 10 11 12 12 13 14 16 15 15 15 15 15 14 13 12 10 10 9 8 7 7 6 6 6 6 6
7 7 5 4 6 6 4 4 5 4 5 5 6 6 6 6 7 9 10 11 12 13 14 15 17 17 16 16 15 15 14 13 12 11 10 8 7 7 7 7 7 7 8
7 7 6 6 6 4 4 4 5 5 4 5 7 7 6 6 7 7 8 9 11 13 14 14 14 15 17 17 17 16 15 13 13 12 12 11 9 8 8 8 8 8 9
7 7 5 5 5 4 4 4 4 6 4 3 5 5 5 6 8 7 7 8 9 11 13 14 13 13 14 16 18 17 16 15 14 14 14 13 11 10 10 9 9 9 10
6 6 5 4 4 4 5 4 4 3 3 3 3 3 3 5 5 7 6 7 7 9 11 12 13 14 13 14 16 18 17 16 15 15 15 15 14 13 12 11 11 11 10
7 7 6 5 4 4 3 3 3 4 3 3 3 3 3 1 1 4 6 6 7 7 7 10 13 13 14 13 14 16 17 16 16 16 16 16 16 15 14 13 12 11 11
7 7 6 6 5 4 4 3 3 3 3 2 3 4 3 3 3 1 3 4 6 7 7 8 10 12 13 13 14 16 17 17 17 17 16 16 16 15 14 14 13 13 13
6 7 7 6 5 4 4 4 4 4 3 3 2 2 3 4 3 3 1 3 4 4 5 7 9 11 13 13 13 15 16 17 17 17 17 16 16 15 15 14 14 13 13
3 5 6 6 5 4 4 4 4 4 3 4 3 3 2 2 2 2 2 1 2 3 4 5 8 9 11 12 12 15 16 16 16 16 17 17 17 16 15 15 14 14 14
1 2 3 4 4 4 5 5 5 4 4 4 3 2 2 2 2 3 3 2 2 2 3 4 6 9 10 11 11 13 14 15 15 16 16 16 16 16 16 16 15 15 15
2 2 4 4 5 5 6 6 4 4 4 4 4 4 3 3 2 2 3 3 2 3 4 4 3 8 9 10 11 11 11 14 14 14 14 15 15 15 15 15 15 15 15
3 4 5 4 5 5 6 5 4 4 4 4 4 4 3 3 3 2 2 3 4 2 2 3 3 5 8 9 11 10 10 12 13 13 13 13 13 14 14 14 14 14 14
4 5 4 4 4 5 5 5 4 3 5 4 3 4 4 2 3 3 3 3 3 4 2 1 2 3 5 7 9 10 10 11 13 12 12 12 12 12 12 12 12 12 13
4 4 4 4 4 4 4 5 4 4 5 4 3 4 3 3 3 3 3 3 3 3 3 1 2 3 4 5 8 9 9 10 11 12 12 12 11 11 12 12 12 12 12
4 4 5 5 4 4 4 5 4 4 4 3 3 4 3 3 4 3 3 3 3 2 3 1 2 3 3 4 5 6 7 8 9 10 12 12 11 11 11 11 11 11 12
4 4 5 5 4 4 4 4 5 4 3 3 3 3 2 4 3 3 3 3 2 3 3 2 1 1 2 3 3 4 6 6 7 8 9 10 10 11 11 11 11 11 11
5 5 4 4 5 5 4 4 5 4 4 3 2 2 2 3 3 3 3 3 3 4 3 3 1 1 2 2 2 3 4 4 4 7 7 9 9 10 10 10 10 11 11
5 5 5 4 4 4 4 5 5 5 4 3 3 2 2 4 4 4 3 3 4 3 3 2 1 1 2 2 2 1 2 3 3 4 4 6 7 8 9 10 10 10 11
5 5 5 5 4 3 6 8 7 5 4 4 3 2 3 3 4 5 5 5 5 4 3 2 1 0 2 2 1 1 1 2 3 4 3 4 5 5 8 8 10 11 11
5 5 5 5 4 4 7 8 8 5 4 4 3 2 2 3 4 4 4 5 4 3 3 3 2 2 2 3 1 1 1 1 2 3 3 4 4 4 7 9 11 11 11
5 4 4 4 4 4 7 8 8 6 4 3 3 3 3 2 3 4 4 3 2 2 2 2 2 2 2 2 2 2 2 2 2 3 1 2 4 4 6 9 11 10 11
5 4 4 5 5 4 6 8 8 5 4 3 2 3 3 3 4 5 4 3 1 1 2 1 1 1 2 2 1 2 1 1 3 3 1 1 3 4 4 5 8 10 12
5 5 4 4 5 4 6 8 8 4 3 2 1 2 3 4 4 5 4 4 2 1 1 2 3 3 4 3 2 1 1 1 1 3 2 1 3 3 4 3 5 9 11
Wind_Direction
53 47 42 42 44 54 65 66 68 69 69 67 66 66 58 54 53 49 43 50 54 53 52 51 51 51 50 46 41 39 40 39 36 37 40 41 51 47 49 54 49 45 40
70 62 50 44 44 56 67 74 75 76 71 71 65 63 60 56 55 51 46 44 47 49 48 48 47 45 46 44 42 39 39 38 36 37 40 45 53 56 54 50 44 40 34
79 77 66 52 49 64 74 76 72 76 75 71 61 56 57 56 57 53 49 46 44 45 46 46 44 44 42 42 42 40 39 39 39 41 44 52 58 58 57 52 40 38 34
84 81 72 57 61 72 77 79 70 74 71 70 64 51 51 51 50 52 51 48 45 42 42 44 43 43 41 41 41 40 39 41 45 46 49 56 58 56 54 50 45 47 43
81 83 75 63 70 73 69 81 70 80 81 78 73 57 46 47 46 51 49 47 46 45 43 41 43 43 40 38 37 37 38 42 45 46 50 55 59 59 57 55 52 52 48
79 81 75 63 70 75 66 70 80 69 76 84 81 64 48 43 46 43 42 45 47 46 45 42 40 38 38 37 36 34 36 41 47 47 47 50 59 64 61 57 55 54 52
76 76 74 64 66 77 80 83 84 77 63 64 81 62 41 42 46 37 36 42 42 44 46 43 41 38 34 33 34 34 36 42 47 47 46 46 54 65 65 60 57 55 51
73 79 78 77 72 81 75 74 84 87 60 40 90 90 47 17 21 28 31 38 34 39 43 42 40 38 34 32 31 34 38 43 47 47 47 48 54 59 60 57 56 54 52
72 77 82 81 75 83 91 82 91 105 104 44 53 114 122 155 7 6 24 32 29 34 33 36 37 35 32 30 30 31 38 42 45 48 49 50 52 54 53 53 53 52 49
68 73 79 80 77 77 83 81 78 88 109 93 52 50 89 136 128 44 360 13 26 34 28 31 31 31 30 30 31 34 40 43 45 46 47 48 49 51 50 49 50 49 46
60 68 75 76 74 72 75 74 76 76 87 105 98 82 71 64 79 121 79 353 11 16 22 25 29 28 28 29 31 35 41 43 44 45 45 44 44 45 45 45 44 43 41
49 58 75 78 78 74 72 75 79 82 81 87 87 88 106 106 113 117 131 83 12 349 7 23 27 23 26 31 33 37 42 43 44 46 45 43 42 41 41 40 40 39 38
75 60 77 82 81 81 81 80 76 73 77 84 86 83 87 95 127 126 124 122 60 354 358 9 17 21 25 30 32 35 40 44 45 47 46 44 42 41 40 39 37 36 34
150 122 107 96 90 90 87 82 73 68 72 78 77 77 76 66 88 115 134 133 92 24 18 351 346 12 17 28 30 39 42 43 44 44 43 43 43 42 40 39 37 34 32
133 117 112 102 93 91 91 89 78 69 73 71 73 75 72 55 62 74 102 125 133 115 5 337 343 348 7 26 30 38 40 39 40 40 39 38 38 39 38 36 34 31 29
123 122 116 108 100 94 95 92 82 74 79 66 71 78 69 56 60 65 79 80 102 135 138 318 317 326 2 24 28 34 36 39 36 35 35 35 35 34 33 32 29 27 25
137 135 132 124 116 108 103 102 96 90 86 72 68 82 74 69 72 64 70 77 78 103 127 330 340 344 11 17 17 28 31 31 29 32 33 33 32 31 28 25 23 22 19
141 136 130 127 126 119 115 117 117 107 106 100 87 84 74 82 76 69 79 81 81 89 127 123 348 354 2 1 8 15 18 22 22 25 30 31 29 27 25 21 18 16 12
143 133 134 136 135 133 127 125 122 115 113 113 109 111 108 100 89 79 81 82 76 77 86 116 19 351 352 1 7 7 11 8 12 13 22 23 21 18 15 13 9 5 3
151 147 143 140 138 134 133 130 125 120 115 104 98 109 114 123 126 116 99 96 96 87 83 87 53 360 344 336 12 2 357 356 359 5 9 7 6 5 4 2 359 356 355
153 147 138 133 132 137 147 146 141 137 131 112 85 82 102 114 118 119 118 126 118 108 99 89 58 19 347 346 336 323 336 332 338 2 352 350 351 352 348 349 350 349 348
141 138 141 144 149 159 157 157 150 140 135 130 118 85 77 77 88 99 108 117 127 131 140 132 126 234 282 271 289 318 325 351 333 341 343 328 348 336 335 340 341 342 342
143 141 147 148 155 163 159 156 155 141 139 140 138 125 109 97 91 90 86 83 82 109 142 157 169 226 238 238 225 305 285 265 275 309 331 311 324 318 325 333 336 336 338
148 151 153 156 154 168 162 153 148 138 134 137 147 153 146 139 126 123 110 85 66 59 88 127 184 226 228 214 200 215 231 272 287 312 333 296 310 303 314 319 329 334 337
152 155 156 160 163 177 169 159 146 138 139 152 165 153 158 168 154 135 122 115 60 345 44 89 88 11 338 341 64 80 27 4 323 310 321 290 304 309 304 299 318 332 334
157 149 149 163 168 178 173 166 155 147 152 166 168 170 176 178 169 152 148 151 166 263 8 38 30 16 14 11 14 89 200 239 291 301 300 298 304 325 316 295 308 320 323
Height
1554 1554 1554 1554 1554 1554 1554 1554 1554 1554 1554 1554 1554 1554 1554 1554 1554 1553 1552 1551 1551 1551 1551 1550 1550 1550 1549 1549 1548 1548 1547 1547 1546 1546 1545 1545 1546 1546 1546 1546 1547 1547 1546
1556 1556 1555 1555 1555 1555 1555 1555 1555 1556 1556 1556 1556 1556 1556 1556 1555 1555 1554 1554 1553 1552 1552 1551 1551 1550 1550 1549 1548 1548 1547 1546 1545 1544 1543 1543 1544 1545 1545 1545 1546 1546 1545
1557 1557 1557 1556 1556 1556 1556 1556 1557 1557 1557 1557 1558 1558 1558 1558 1558 1557 1556 1556 1555 1554 1553 1552 1551 1551 1550 1549 1548 1547 1546 1545 1544 1542 1541 1541 1542 1544 1544 1544 1544 1544 1544
1559 1558 1558 1558 1558 1558 1558 1558 1558 1558 1559 1559 1559 1560 1560 1560 1559 1559 1558 1558 1556 1555 1555 1554 1553 1552 1551 1550 1549 1547 1546 1544 1543 1542 1541 1541 1542 1543 1543 1544 1544 1544 1544
1560 1559 1559 1559 1559 1559 1559 1559 1559 1560 1560 1561 1561 1561 1562 1561 1561 1561 1560 1559 1558 1557 1556 1555 1554 1553 1552 1551 1549 1548 1546 1544 1543 1542 1542 1541 1541 1542 1543 1543 1544 1544 1544
1561 1561 1560 1560 1560 1560 1560 1561 1561 1561 1562 1562 1562 1563 1563 1563 1563 1562 1562 1561 1560 1559 1558 1557 1556 1555 1553 1552 1550 1548 1546 1545 1543 1542 1541 1539 1539 1540 1542 1543 1543 1544 1544
1562 1562 1562 1562 1561 1561 1562 1562 1562 1563 1563 1563 1564 1564 1565 1565 1564 1564 1564 1563 1562 1561 1560 1558 1557 1556 1555 1553 1551 1549 1547 1546 1544 1543 1541 1538 1536 1538 1541 1542 1543 1544 1544
1563 1563 1563 1563 1563 1563 1563 1563 1564 1564 1564 1565 1565 1565 1566 1567 1566 1566 1565 1565 1564 1563 1561 1560 1559 1558 1556 1554 1553 1551 1549 1548 1546 1545 1543 1540 1538 1539 1541 1543 1544 1544 1544
1564 1564 1564 1564 1564 1564 1564 1564 1565 1565 1565 1566 1566 1567 1567 1567 1567 1568 1567 1566 1565 1564 1563 1562 1561 1560 1558 1556 1555 1553 1552 1550 1549 1547 1546 1544 1542 1542 1543 1544 1544 1544 1544
1565 1565 1565 1565 1566 1566 1566 1566 1566 1566 1566 1566 1567 1567 1568 1567 1568 1568 1569 1568 1567 1566 1565 1564 1563 1562 1560 1558 1557 1555 1553 1552 1551 1549 1548 1547 1546 1545 1545 1545 1545 1544 1544
1566 1566 1566 1567 1567 1567 1567 1567 1567 1567 1567 1567 1567 1567 1568 1568 1568 1568 1569 1569 1568 1567 1566 1566 1565 1563 1562 1560 1558 1557 1555 1554 1552 1551 1550 1549 1548 1547 1547 1546 1545 1545 1544
1567 1567 1567 1567 1568 1568 1568 1568 1568 1568 1568 1568 1568 1568 1568 1568 1568 1568 1568 1569 1569 1569 1568 1567 1566 1565 1563 1562 1560 1558 1557 1555 1554 1553 1551 1550 1549 1548 1547 1547 1546 1545 1544
1567 1568 1568 1568 1568 1569 1569 1569 1569 1569 1569 1569 1569 1569 1569 1569 1569 1569 1569 1569 1569 1569 1569 1568 1567 1566 1565 1563 1562 1560 1558 1557 1555 1554 1553 1551 1550 1549 1548 1547 1545 1544 1543
1567 1568 1569 1569 1569 1569 1569 1570 1570 1570 1570 1570 1570 1570 1570 1570 1570 1570 1570 1569 1569 1570 1569 1569 1568 1567 1566 1565 1563 1561 1560 1558 1557 1555 1553 1552 1550 1549 1548 1546 1545 1544 1542
1567 1568 1569 1569 1569 1570 1570 1570 1570 1570 1570 1570 1570 1570 1570 1570 1570 1570 1570 1570 1570 1569 1569 1569 1569 1568 1566 1565 1564 1562 1560 1559 1557 1556 1554 1552 1551 1549 1548 1546 1545 1543 1542
1567 1568 1569 1569 1570 1570 1570 1570 1570 1570 1570 1570 1570 1571 1571 1571 1571 1571 1570 1570 1570 1570 1569 1569 1569 1568 1567 1565 1564 1562 1561 1559 1558 1556 1554 1552 1551 1549 1548 1546 1544 1542 1541
1567 1568 1569 1569 1569 1570 1570 1570 1570 1570 1570 1571 1571 1571 1571 1571 1571 1571 1570 1570 1570 1570 1569 1569 1569 1568 1567 1565 1564 1562 1561 1559 1558 1556 1554 1552 1550 1549 1547 1545 1543 1541 1540
1566 1567 1568 1568 1569 1569 1570 1570 1570 1570 1570 1571 1571 1571 1571 1571 1571 1571 1571 1570 1570 1570 1569 1568 1568 1567 1566 1565 1563 1562 1560 1559 1557 1555 1553 1552 1550 1548 1546 1544 1542 1540 1538
1565 1566 1567 1568 1568 1569 1569 1569 1570 1570 1570 1570 1571 1571 1571 1571 1571 1571 1570 1570 1570 1569 1569 1568 1567 1567 1566 1564 1563 1562 1560 1558 1556 1555 1553 1551 1549 1547 1545 1543 1541 1539 1536
1564 1565 1566 1566 1567 1568 1568 1569 1569 1569 1569 1570 1570 1570 1571 1570 1570 1570 1570 1569 1569 1569 1568 1567 1567 1566 1565 1563 1562 1560 1559 1557 1555 1554 1552 1550 1548 1546 1544 1541 1539 1537 1534
1562 1563 1564 1565 1566 1567 1568 1568 1569 1569 1569 1569 1569 1570 1570 1570 1570 1569 1569 1569 1568 1568 1567 1566 1565 1565 1564 1562 1561 1559 1557 1556 1554 1552 1550 1548 1546 1544 1542 1539 1537 1534 1532
1561 1562 1563 1564 1565 1566 1567 1567 1568 1568 1568 1568 1569 1569 1569 1569 1569 1568 1568 1568 1568 1567 1566 1565 1564 1563 1562 1561 1560 1558 1556 1554 1552 1551 1548 1546 1544 1541 1539 1536 1534 1532 1529
1559 1560 1562 1563 1564 1565 1565 1566 1566 1567 1567 1567 1567 1568 1568 1568 1567 1567 1567 1566 1566 1565 1565 1564 1563 1562 1561 1560 1558 1557 1555 1553 1550 1548 1546 1543 1541 1539 1537 1534 1531 1529 1526
1557 1559 1560 1562 1563 1563 1564 1565 1565 1565 1565 1566 1566 1566 1566 1566 1566 1566 1565 1565 1564 1564 1563 1562 1561 1560 1559 1558 1556 1555 1553 1551 1549 1546 1544 1540 1538 1535 1533 1531 1528 1526 1523
1555 1557 1558 1560 1561 1562 1563 1563 1564 1564 1564 1564 1564 1565 1565 1564 1564 1564 1564 1563 1563 1562 1561 1560 1559 1558 1557 1556 1554 1553 1550 1548 1545 1543 1541 1538 1534 1531 1529 1527 1525 1522 1520
1553 1555 1557 1558 1559 1560 1561 1561 1562 1562 1562 1562 1563 1563 1563 1563 1563 1562 1562 1561 1560 1560 1559 1558 1557 1556 1555 1553 1552 1550 1548 1545 1542 1540 1538 1535 1532 1529 1525 1523 1521 1519 1516